Regional Weather Roundup
Issued by NWS Green Bay, WI

Home | Current Version | Previous Version | Text Only | Print | Product List | Glossary On
Versions: 1 2 3 4 5 6 7 8 9 10 11 12 13 14 15 16 17 18 19 20 21 22 23 24 25 26 27 28 29 30 31 32 33 34 35 36 37 38 39 40 41 42 43 44 45 46 47 48 49 50
000
ASUS43 KGRB 242311
RWRGRB

NORTH-CENTRAL AND NORTHEAST WISCONSIN REGIONAL WEATHER ROUNDUP
NATIONAL WEATHER SERVICE GREEN BAY WI
500 PM CST FRI NOV 24 2017

WIZ005-009-010>012-018-019-250000-
NORTH CENTRAL WISCONSIN

CITY           SKY/WX    TMP DP  RH WIND       PRES   REMARKS
IRONWOOD       LGT RAIN  40  40 100 W9        29.38R
MANITOWISH WTR LGT RAIN  42  42 100 NW10G21   29.37R
ARBOR VITAE    RAIN      47  44  90 NW14G22   29.36R
EAGLE RIVER    CLOUDY    48  40  72 W16G22    29.32R
LAND O LAKES   DRIZZLE   45  43  92 NW9       29.35R
RHINELANDER    CLOUDY    50  40  68 W9        29.34R
PHILLIPS       LGT RAIN  45  44  97 NW8       29.38R
ANTIGO         CLOUDY    48  37  67 W6        29.34F
TOMAHAWK       CLOUDY    50  38  63 W9        29.36R
MERRILL        CLOUDY    50  39  64 W3        29.34F
$$

WIZ013-073-250000-
NORTHEAST WISCONSIN

CITY           SKY/WX    TMP DP  RH WIND       PRES   REMARKS
IRON MOUNTAIN  CLOUDY    52  36  54 SW5       29.28S
MARINETTE      CLOUDY    55  38  52 W6        29.33R
OCONTO         CLOUDY    57  38  50 W7        29.33R
$$

WIZ017-030-035>037-045-250000-
CENTRAL WISCONSIN

CITY           SKY/WX    TMP DP  RH WIND       PRES   REMARKS
MEDFORD        CLOUDY    50  39  65 W15G21    29.38R
WAUSAU         MOCLDY    52  39  61 W7        29.34F
MOSINEE        CLOUDY    52  39  62 W7        29.36F
MARSHFIELD     LGT RAIN  52  40  63 W9        29.38R
WISC RAPIDS    CLOUDY    57  40  52 W7        29.39S
STEVENS POINT  CLOUDY    55  38  54 W3        29.37F
WAUPACA        PTCLDY    60  38  44 W8        29.37R
SHAWANO        CLOUDY    60  39  46 W7        29.35R
CLINTONVILLE   CLOUDY    57  37  47 W9        29.36R
WAUTOMA        PTCLDY    57  39  51 W10       29.38R
$$

WIZ038-039-048-051-250000-
FOX VALLEY

CITY           SKY/WX    TMP DP  RH WIND       PRES   REMARKS
NWS GREEN BAY  CLOUDY    57  41  55 W10       29.34R
APPLETON       MOCLDY    57  34  41 W16       29.34R
OSHKOSH        CLEAR     56  39  53 CALM      29.36R
FOND DU LAC    CLEAR     57  37  47 SW8       29.37R
$$

WIZ022-050-052-250000-
EAST CENTRAL WISCONSIN

CITY           SKY/WX    TMP DP  RH WIND       PRES   REMARKS
EPHRAIM        FAIR      45  38  78 S6        29.31R
WASHINGTON ISL FAIR      45  39  78 S8        29.31R
STURGEON BAY   CLOUDY    45  39  79 CALM      29.33R
MANITOWOC      CLEAR     60  39  45 SW12G18   29.35R
SHEBOYGAN      CLEAR     58  40  51 SW9       29.36R
$$

LMZ563-521-522-541>543-250000-
LAKESHORE

STATION/POSITION TIME  TEMP    WIND        PRES    VSBY  WAVE
                       AIR SEA DIR/SP/G                  HT/PER
                 (UTC) (F)     (DEG/KT/KT) (MB)    (MI)  (FT/S)
SHEBOYGAN LKSHOR 2300   47     190/  9/  9  994.6R
KEWAUNEE LKSHORE 2248   45                  992.6R
NORTHPORT PIER   2240   47     170/  5/  8  992.9R
N MID LAKE BUOY  2250   49 47  210/ 19/ 25  993.0F        11/ 8
MENOMINEE LKSHOR 2248   55                  992.8R
$$



USA.gov is the U.S. government's official web portal to all federal, state and local government web resources and services.